Location: Kitt Peak
(31.9639°N, 111.5992°W)
Time: 04:03:43
(UTC-07:00)

N. Korean satellite - Visible Passes

Search period start: 15 December 2019 00:00
Search period end: 25 December 2019 00:00
Orbit: 455 x 507 km, 97.2° (Epoch: 14 December)

Date Brightness Start Highest point End Pass type
(mag) Time Alt. Az. Time Alt. Az. Time Alt. Az.
15 Dec 9.7 05:24:35 10° ENE 05:26:43 15° E 05:28:50 10° SE visible
16 Dec 6.7 06:31:23 10° N 06:34:42 45° WNW 06:37:58 10° SSW visible
16 Dec 10.0 18:36:39 10° SW 18:38:30 13° W 18:40:21 10° WNW visible
17 Dec 6.7 06:05:52 10° NNE 06:09:18 68° E 06:12:41 10° S visible
17 Dec 8.9 18:09:44 10° SSW 18:12:58 29° W 18:16:12 10° NW visible
18 Dec 8.7 05:40:52 10° NE 05:43:50 27° E 05:46:45 10° SSE visible
19 Dec 9.9 05:16:57 10° ENE 05:18:15 12° E 05:19:33 10° ESE visible
19 Dec 7.5 06:48:47 10° NNW 06:51:38 25° WNW 06:54:29 10° SW visible
20 Dec 6.4 06:22:54 10° N 06:26:17 61° WNW 06:29:39 10° SSW visible
20 Dec 9.8 18:27:37 10° SW 18:30:04 17° W 18:32:31 10° NW visible
21 Dec 7.4 05:57:32 10° NNE 06:00:52 49° E 06:04:10 10° S visible
21 Dec 8.3 18:01:09 10° SSW 18:04:33 37° W 18:07:57 10° NNW visible
22 Dec 9.2 05:32:44 10° NE 05:35:21 20° E 05:37:57 10° SSE visible
23 Dec 7.1 06:40:09 10° N 06:43:14 32° WNW 06:46:19 10° SW visible
24 Dec 6.3 06:14:26 10° N 06:17:52 84° WNW 06:21:15 10° SSW visible
24 Dec 9.5 18:18:47 10° SSW 18:21:38 21° W 18:24:28 10° NW visible
